Regional Weather Roundup
Issued by NWS Bismarck, ND

Home | Current Version | Previous Version | Text Only | Print | Product List | Glossary On
Versions: 1 2 3 4 5 6 7 8 9 10 11 12 13 14 15 16 17 18 19 20 21 22 23 24 25 26 27 28 29 30 31 32 33 34 35 36 37 38 39 40 41 42 43 44 45 46 47 48 49 50
000
ASUS43 KBIS 181810
RWRBIS

NWR BROADCAST TEXT
NATIONAL WEATHER SERVICE BISMARCK ND
1200 PM CST SUN FEB 18 2018

NOTE: "FAIR" INDICATES FEW OR NO CLOUDS BELOW 12,000 FEET WITH NO
SIGNIFICANT WEATHER AND/OR OBSTRUCTIONS TO VISIBILITY.


CITY           SKY/WX    TMP DP  RH WIND       PRES   REMARKS
WILLISTON      CLOUDY    10   2  69 N9        29.94R WCI  -3
MINOT          CLOUDY    10   3  73 N18       29.88F WCI  -8
MINOT AFB      DRIZZLE    9   1  72 NE16      29.87F WCI  -9
BISMARCK       LGT SNOW  12   7  80 N17G25    29.78S WCI  -5
DICKINSON      LGT SNOW   7   2  80 N23       29.75R WCI -14
GARRISON         N/A      8   2  76 NE17G24   29.82S WCI -10
HETTINGER ARPT LGT SNOW   9   3  77 N20       29.71S WCI -10
JAMESTOWN      LGT SNOW  15  11  83 N23G30    29.73R FOG     WCI  -3
CARRINGTON     LGT SNOW  10   7  85 N22       29.82R WCI  -9
LINTON         LGT SNOW  16  10  79 N21       29.72R WCI  -2
OAKES            N/A     19  16  86 NE24G33   29.62R WCI   2
TIOGA          FAIR       7   1  78 NE13      29.88R WCI  -9
$$

CITY           SKY/WX    TMP DP  RH WIND       PRES   REMARKS
GRAND FORKS    LGT SNOW  13  10  88 N24       29.84F VSB 1   WCI  -7
GRAND FORKS AF CLOUDY    12   8  81 NE22      29.84R BLWGSNOWWCI  -6
DEVILS LAKE    LGT SNOW   9   3  78 NE23      29.85F FOG     WCI -12
FARGO          LGT SNOW  20  17  88 NE20      29.69F FOG     WCI   4
CANDO          CLOUDY    10   3  72 NE13G21   29.90S HAZE    WCI  -5
CAVALIER       LGT SNOW  10   7  85 N10       29.93R WCI  -3
GWINNER          N/A     21  18  86 NE22      29.62R WCI   5
ROLLA          FLURRIES   7   3  85 N15       29.88R WCI -11
WALHALLA       LGT SNOW   9   9 100 N12       29.95R WCI  -6
$$

CITY           SKY/WX    TMP DP  RH WIND       PRES   REMARKS
ABERDEEN       PTSUNNY   28  19  69 N20       29.58R WCI  15
MOBRIDGE       CLOUDY    19  14  81 N23G30    29.62R WCI   2
BUFFALO          N/A     10   3  73 N17       29.65R WCI  -8
RAPID CITY     CLOUDY    21  15  78 N44G54    29.56R WCI   0
GLASGOW        CLOUDY     7  -1  70 N17       29.94R WCI -12
SIDNEY         LGT SNOW  10   4  76 N17       29.90R WCI  -8
WOLF POINT     CLOUDY     9   1  70 N15       29.97R WCI  -8
GLENDIVE       LGT SNOW   9   4  80 N17       29.87R WCI  -9
MILES CITY     FLURRIES  10   4  76 N14       29.85R WCI  -6
BAKER          CLOUDY     9   4  80 N12       29.79R WCI  -6
$$

CITY           SKY/WX    TMP DP  RH WIND       PRES   REMARKS
BILLINGS       LGT SNOW   7   3  84 N12       29.82R VSB 3/4 WCI  -8
GREAT FALLS    LGT SNOW   4  -2  76 N8        29.92R WCI  -9
REGINA         CLOUDY     7  -4  61 NE6       29.97R WCI  -3
ESTEVAN        MOSUNNY    9  -2  61 N10       29.93R WCI  -6
$$




USA.gov is the U.S. government's official web portal to all federal, state and local government web resources and services.